Location: Bakov nad Jizerou
(50.4784°N, 14.9394°E)
Time: 09:21:20
(UTC+00:00)

BREEZE-M DEB (TANK) - Pass Details

Date: 16 June 2021
Orbit: 320 x 14773 km, 49.5° (Epoch: 04 August)

Event Time Altitude Azimuth Distance (km) Brightness Sun altitude
Rises 20:35:29 0° 231° (SW) 2,091 5.7 -9.4°
Reaches altitude 10° 20:36:58 10° 222° (SW) 1,387 4.7 -9.6°
Maximum altitude 20:39:27 42° 148° (SSE) 774 3.1 -9.8°
Drops below altitude 10° 20:45:01 10° 78° (ENE) 3,097 6.4 -10.3°
Sets 20:50:09 0° 74° (ENE) 5,469 7.7 -10.7°
